This demonstration page uses our WeatherBlox Daily Observations layout. Learn more.

40.92945, -100.16068

Hourly Observations for December 3, 2017

Temp ( °F °C ) Dew Point ( °F °C ) Humidity (%) Winds ( mph kmh ) Pressure ( in mb ) Visibility ( mi km ) Precip ( " mm )
12:15 am 00:15 Clear 33 0.8 21 -6 61 61 Calm 30.15 1021 10 16.09344 0 0
12:35 am 00:35 Clear 31 -0.8 21 -6.1 68 68 E 3 6 30.15 1021 10 16.09344 0 0
12:55 am 00:55 Clear 32 -0.2 21 -6 65 65 Calm 30.15 1021 10 16.09344 0 0
1:15 am 01:15 Clear 30 -1 20 -6.4 67 67 ESE 5 7 30.15 1021 10 16.09344 0 0
1:35 am 01:35 Clear 31 -0.5 21 -6 67 67 E 5 7 30.15 1021 10 16.09344 0 0
1:55 am 01:55 Clear 31 -0.3 21 -5.9 66 66 ESE 3 6 30.15 1021 10 16.09344 0 0
2:15 am 02:15 Clear 32 0 22 -5.7 66 66 SE 5 7 30.12 1020 10 16.09344 0 0
2:35 am 02:35 Clear 32 0.1 22 -5.6 66 66 E 3 6 30.12 1020 10 16.09344 0 0
2:55 am 02:55 Clear 34 0.9 23 -5 65 65 ESE 5 7 30.09 1019 10 16.09344 0 0
3:15 am 03:15 Clear 33 0.4 23 -5.2 66 66 ESE 5 7 30.12 1020 10 16.09344 0 0
3:35 am 03:35 Clear 32 0 23 -5.2 68 68 SE 5 7 30.12 1020 10 16.09344 0 0
3:55 am 03:55 Clear 32 0.1 23 -5.2 68 68 ESE 3 6 30.09 1019 10 16.09344 0 0
4:15 am 04:15 Clear 32 -0.1 23 -5.1 69 69 SSE 3 6 30.09 1019 10 16.09344 0 0
4:35 am 04:35 Clear 32 0.2 24 -4.5 71 71 SSE 5 7 30.09 1019 10 16.09344 0 0
4:55 am 04:55 Clear 34 1 24 -4.5 67 67 S 6 9 30.06 1018 10 16.09344 0 0
5:15 am 05:15 Clear 34 1 24 -4.2 69 69 SSE 6 9 30.06 1018 10 16.09344 0 0
5:35 am 05:35 Clear 37 2.6 27 -3 67 67 SE 3 6 30.06 1018 10 16.09344 0 0
5:55 am 05:55 Clear 36 2 26 -3.2 69 69 SE 5 7 30.06 1018 10 16.09344 0 0
6:15 am 06:15 Clear 35 1.4 27 -2.8 74 74 E 5 7 30.06 1018 10 16.09344 0 0
6:35 am 06:35 Clear 34 1.1 27 -2.6 77 77 ESE 6 9 30.03 1017 10 16.09344 0 0
6:55 am 06:55 Clear 35 1.6 28 -2.5 74 74 ESE 5 7 30.03 1017 10 16.09344 0 0
7:15 am 07:15 Clear 33 0.8 27 -2.7 78 78 E 5 7 30.03 1017 10 16.09344 0 0
7:35 am 07:35 Clear 35 1.4 28 -2.1 78 78 SE 8 13 30.03 1017 10 16.09344 0 0
7:55 am 07:55 Sunny 37 2.8 31 -0.8 77 77 SE 7 11 30.03 1017 10 16.09344 0 0
8:15 am 08:15 Sunny 37 3 31 -0.6 77 77 SE 8 13 29.97 1015 10 16.09344 0 0
8:35 am 08:35 Sunny 41 5.2 32 0.2 70 70 SE 9 15 29.97 1015 10 16.09344 0 0
8:55 am 08:55 Sunny 42 5.5 33 0.6 71 71 SE 7 11 29.97 1015 10 16.09344 0 0
9:15 am 09:15 Sunny 45 7.1 36 2.2 71 71 S 10 17 29.94 1014 10 16.09344 0 0
9:35 am 09:35 Sunny 47 8.6 38 3.5 71 71 S 13 20 29.91 1013 10 16.09344 0 0
9:55 am 09:55 Sunny 49 9.3 39 4 70 70 S 14 22 29.88 1012 10 16.09344 0 0
10:15 am 10:15 Sunny 49 9.7 40 4.4 70 70 S 15 24 29.88 1012 10 16.09344 0 0
10:35 am 10:35 Sunny 50 10.2 41 4.9 70 70 S 21 33 29.85 1011 10 16.09344 0 0
10:55 am 10:55 Sunny 53 11.5 41 5.1 65 65 S 21 33 29.8 1009 10 16.09344 0 0
11:15 am 11:15 Sunny 54 12.1 41 5.2 63 63 SSW 22 35 29.8 1009 10 16.09344 0 0
11:35 am 11:35 Sunny 54 12.3 42 5.3 63 63 S 24 39 29.77 1008 10 16.09344 0 0
11:55 am 11:55 Sunny 55 13 42 5.8 62 62 S 20 31 29.77 1008 10 16.09344 0 0
12:15 pm 12:15 Sunny 54 12.2 41 5.1 62 62 SSW 18 30 29.74 1007 10 16.09344 0 0
12:35 pm 12:35 Sunny 56 13.1 41 5.1 59 59 S 16 26 29.74 1007 10 16.09344 0 0
12:55 pm 12:55 Sunny 55 13 41 5.1 59 59 S 15 24 29.74 1007 10 16.09344 0 0
1:15 pm 13:15 Sunny 56 13.3 42 5.4 59 59 S 12 19 29.71 1006 10 16.09344 0 0
1:35 pm 13:35 Sunny 57 13.8 42 5.7 58 58 S 12 19 29.68 1005 10 16.09344 0 0
1:55 pm 13:55 Sunny 57 13.8 43 5.9 59 59 SSE 10 17 29.65 1004 10 16.09344 0 0
2:15 pm 14:15 Sunny 57 14 43 6 59 59 SSE 12 19 29.65 1004 10 16.09344 0 0
2:35 pm 14:35 Sunny 58 14.2 43 6 58 58 SSE 14 22 29.65 1004 10 16.09344 0 0
2:55 pm 14:55 Sunny 58 14.2 42 5.8 57 57 SSE 15 24 29.65 1004 10 16.09344 0 0
3:15 pm 15:15 Sunny 57 14.1 42 5.7 57 57 SSE 15 24 29.65 1004 10 16.09344 0 0
3:35 pm 15:35 Sunny 57 13.7 42 5.7 59 59 SSE 15 24 29.62 1003 10 16.09344 0 0
3:55 pm 15:55 Sunny 56 13.2 43 6.2 63 63 SSE 17 28 29.62 1003 10 16.09344 0 0
4:15 pm 16:15 Sunny 55 12.8 43 6.3 65 65 SSE 10 17 29.65 1004 10 16.09344 0 0
4:35 pm 16:35 Sunny 54 12.2 44 6.5 68 68 SE 9 15 29.65 1004 10 16.09344 0 0
4:55 pm 16:55 Sunny 54 12 44 6.6 70 70 SE 9 15 29.62 1003 10 16.09344 0 0
5:15 pm 17:15 Clear 52 11.2 44 6.5 73 73 SE 7 11 29.62 1003 10 16.09344 0 0
5:35 pm 17:35 Clear 52 11 44 6.5 74 74 SE 10 17 29.62 1003 10 16.09344 0 0
5:55 pm 17:55 Clear 51 10.7 44 6.5 75 75 SE 10 17 29.62 1003 10 16.09344 0 0
6:15 pm 18:15 Clear 51 10.6 44 6.5 76 76 ESE 5 7 29.62 1003 10 16.09344 0 0
6:35 pm 18:35 Clear 50 9.9 43 6.2 78 78 SE 3 6 29.62 1003 10 16.09344 0 0
6:55 pm 18:55 Clear 46 7.7 41 5 83 83 Calm 29.62 1003 10 16.09344 0 0
7:15 pm 19:15 Clear 45 7.1 40 4.5 84 84 SSE 7 11 29.62 1003 10 16.09344 0 0
7:35 pm 19:35 Clear 45 7.2 41 5 86 86 SSE 5 7 29.62 1003 10 16.09344 0 0
7:55 pm 19:55 Clear 46 7.6 41 5.2 85 85 SE 3 6 29.59 1002 10 16.09344 0 0
8:15 pm 20:15 Clear 45 7.3 41 4.9 85 85 SE 5 7 29.59 1002 10 16.09344 0 0
8:35 pm 20:35 Clear 44 6.6 40 4.5 87 87 SE 3 6 29.59 1002 7 11.265408 0 0
8:55 pm 20:55 Clear 42 5.5 39 3.7 88 88 Calm 29.59 1002 7 11.265408 0 0
9:15 pm 21:15 Clear 43 6.1 40 4.7 91 91 SE 7 11 29.56 1001 7 11.265408 0 0
9:35 pm 21:35 Clear 46 7.5 42 5.5 87 87 SE 3 6 29.56 1001 7 11.265408 0 0
9:55 pm 21:55 Clear with Mist and Fog 40 4.6 38 3.1 90 90 E 6 9 29.56 1001 5 8.04672 0 0
10:15 pm 22:15 Clear 42 5.4 40 4.2 92 92 SE 5 7 29.53 1000 7 11.265408 0 0
10:35 pm 22:35 Clear 43 6.3 41 4.8 90 90 SE 6 9 29.5 999 7 11.265408 0 0
10:55 pm 22:55 Clear 42 5.5 39 4.1 91 91 SE 3 6 29.5 999 7 11.265408 0 0
11:15 pm 23:15 Clear 42 5.7 40 4.3 91 91 Calm 29.5 999 7 11.265408 0 0
11:35 pm 23:35 Clear with Mist and Fog 38 3.5 36 2.2 91 91 N 5 7 29.53 1000 5 8.04672 0 0
11:55 pm 23:55 Clear with Mist and Fog 38 3.3 36 2.1 92 92 ENE 5 7 29.5 999 5 8.04672 0 0

Powered by AerisWeather